Regional Weather Roundup
Issued by NWS

Home | Current Version | Previous Version | Text Only | Print | Product List | Glossary On
Versions: 1 2 3 4 5 6 7 8 9 10 11 12 13 14 15 16 17 18 19 20 21 22 23 24 25 26 27 28
000
ASUS42 KKEY 212210
RWRKEY

FLORIDA REGIONAL WEATHER ROUNDUP FOR THE FLORIDA KEYS
NATIONAL WEATHER SERVICE KEY WEST FLORIDA
600 PM EDT THU SEP 21 2017

...SOUTH FLORIDA AND THE KEYS...

CITY           SKY/WX    TMP DP  RH WIND       PRES   REMARKS
FORT MYERS     SUNNY     90  70  51 NE10      29.87F HX  95
SW REGIONAL AP MOSUNNY   90  67  46 NE12      29.88F HX  93
NAPLES         CLOUDY    83  75  77 NW5       29.88F HX  90
MIAMI          LGT RAIN  85  77  77 NE8       29.88F HX  95
WEST KENDALL   MOSUNNY   85  75  72 E9        29.88F HX  93
HOMESTEAD      MOSUNNY   84  77  79 NE10      29.87F HX  94
MARATHON       SUNNY     87  73  62 N5        29.87F HX  94
BOCA CHICA NAS SUNNY     99  78  51 MISG      29.88F HX 116
KEY WEST INTL  MOSUNNY   89  74  60 MISG      29.88F HX  98

...INTERNATIONAL WEATHER...

CITY           SKY/WX    TMP DP  RH WIND       PRES   REMARKS
NASSAU BAHAMAS MOSUNNY   86  79  79 N6        29.88F HX  99
CANCUN MEXICO  PTSUNNY   84  77  79 CALM      29.86F HX  94
COZUMEL MEXICO PTSUNNY   84  84 100 E5        29.84F HX 104

ADJACENT COASTAL WATERS...

STATION/POSITION TIME  SKY/WX   TEMP    WIND        PRES    WAVE
                                AIR SEA DIR/SP/G            HT/PER
                 (UTC)          (F)     (DEG/KT/KT) (MB)    (FT/S)
PULASKI SHOAL LI 2200            85      50/  6/  7 1012.5F
SAND KEY         2150            84                 1012.5F
LONG KEY         NOT AVBL
MOLASSES REEF    NOT AVBL
FOWEY ROCKS      2200            84 86   50/ 13/ 15 1012.4F
Buoy 42097       2200               85                N/A     1/ 4

$$




USA.gov is the U.S. government's official web portal to all federal, state and local government web resources and services.